National Weather Service Raw Text Product

Displaying AFOS PIL: RWRIA Received: 2018-06-14 04:00 UTC


143 
ASUS43 KDMX 140406
RWRIA 

WEATHER ROUNDUP FOR IOWA
NATIONAL WEATHER SERVICE DES MOINES IA
1100 PM CDT WED JUN 13 2018

NOTE: "FAIR" INDICATES FEW OR NO CLOUDS BELOW 12,000 FEET WITH NO
SIGNIFICANT WEATHER AND/OR OBSTRUCTIONS TO VISIBILITY.

* - THESE STATIONS ARE NOT NWS STATIONS...THUS NOT UNDER NWS
QUALITY CONTROL.  THEY ALSO DO NOT REPORT WEATHER SUCH 
AS PRECIPITATION OR FOG.  

IAZ001>003-012>014-020>022-031>034-043>046-140500-
   NORTHWEST IOWA
  
CITY           SKY/WX    TMP DP  RH WIND       PRES   REMARKS
CARROLL *      CLOUDY    66  57  72 S7        29.98                   
CHEROKEE *     PTCLDY    64  57  80 S3        29.99R                  
DENISON *      CLOUDY    70  54  56 S12       29.99                   
LE MARS *      CLEAR    N/A N/A N/A E6        29.96                   
ORANGE CITY *  CLEAR     64  55  72 SE5       29.98                   
SHELDON *      CLOUDY    63  59  88 E6        29.98                   
SIOUX CITY     PTCLDY    67  55  65 S12       29.95R                  
SPENCER        CLOUDY    65  56  72 CALM      30.01R                  
STORM LAKE *   MOCLDY    64  54  68 S9        30.00                   
$$
 
IAZ055>058-069>071-079>083-090>094-140500-
   SOUTHWEST IOWA
  
CITY           SKY/WX    TMP DP  RH WIND       PRES   REMARKS
ATLANTIC *     MOCLDY    66  59  77 S6        29.99                   
AUDUBON *      CLEAR     66  57  72 S6        30.01                   
CLARINDA *     CLOUDY    70  59  68 VRB5      30.03                   
COUNCIL BLFS * CLOUDY    72  59  64 SE15G22   29.99                   
CRESTON *      CLOUDY    64  59  82 SE6       30.04                   
HARLAN  *      CLOUDY    68  57  68 S12       30.01                   
LAMONI         PTCLDY    68  58  70 E3        30.03S                  
RED OAK *      MOCLDY    70  57  64 MISG      30.01                   
SHENANDOAH *   CLOUDY    72  59  64 SE8       30.01                   
$$
 
IAZ047>049-059>061-072>074-084-140500-
   CENTRAL IOWA
  
CITY           SKY/WX    TMP DP  RH WIND       PRES   REMARKS
AMES           CLOUDY    71  53  52 S9        29.98R                  
ANKENY *       MOCLDY    68  55  64 S5        30.00                   
BOONE *        CLOUDY    70  55  60 S8G14     29.98                   
CHARITON *     CLOUDY    66  57  72 SE7       30.03                   
DES MOINES     CLOUDY    72  54  53 SE5       29.99F                  
GRINNELL*      CLOUDY    68  54  59 S8        30.01                   
KNOXVILLE *    CLOUDY    66  57  72 SE9       29.99                   
MARSHALLTOWN   MOCLDY    70  55  59 S3        29.99F                  
NEWTON *       MOCLDY    66  57  72 S9        29.99                   
PELLA *        PTCLDY    66  53  62 SE7       30.01                   
PERRY *        FAIR      65  61  86 SE6       29.99                   
$$
 
IAZ004>006-015-016-023>025-035-036-140500-
   NORTH CENTRAL IOWA
  
CITY           SKY/WX    TMP DP  RH WIND       PRES   REMARKS
ALGONA *       CLOUDY    66  54  63 SW10      30.02                   
CLARION *      MOCLDY    66  59  77 CALM      30.01                   
ESTHERVILLE    CLOUDY    65  52  62 SW7       30.01R                  
FORT DODGE *   MOCLDY    65  57  75 CALM      30.02R                  
MASON CITY     CLOUDY    67  55  65 E6        30.00S                  
FOREST CITY *  MOCLDY    66  54  63 SE3       29.99                   
WEBSTER CITY * PTCLDY    68  55  64 CALM      29.98                   
IOWA FALLS *   FAIR      68  54  60 S9        29.99                   
$$

IAZ007>011-017>019-026>030-037>042-050>054-066-140500-
   NORTHEAST IOWA
  
CITY           SKY/WX    TMP DP  RH WIND       PRES   REMARKS
CEDAR RAPIDS   FAIR      62  58  86 S3        30.03F                  
CHARLES CITY * FAIR      66  57  72 E9        29.98                   
CLINTON *      FAIR      67  55  65 N3        30.06R                  
DECORAH *      FAIR      66  54  63 SE3       30.01                   
DUBUQUE        FAIR      61  55  81 CALM      30.05S                  
MONTICELLO *   FAIR      61  61 100 E3        30.03                   
OELWEIN *      CLOUDY    66  59  77 SE5       30.00                   
WATERLOO       FAIR      68  53  58 E8        29.96F                  
$$
 
IAZ064-065-067-068-078-140500-
   EAST CENTRAL IOWA
  
CITY           SKY/WX    TMP DP  RH WIND       PRES   REMARKS
DAVENPORT      FAIR      60  56  86 CALM      30.07R                  
IOWA CITY      FAIR      68  57  68 CALM      30.04F                  
MT. PLEASANT * CLEAR     63  54  72 CALM      30.06R                  
MUSCATINE *      N/A    N/A N/A N/A MISG        N/A                   
QUAD CITIES      N/A     62  58  86 CALM      30.04R                  
$$
 
IAZ062-063-075>077-085>089-095>099-140500-
   SOUTHEAST IOWA
  
CITY           SKY/WX    TMP DP  RH WIND       PRES   REMARKS
BURLINGTON     CLEAR     68  50  52 N3        30.06R                  
FAIRFIELD *    PTCLDY    63  55  77 NE5       30.04                   
FORT MADISON * CLEAR     63  54  72 CALM      30.06                   
KEOKUK *       CLEAR     64  55  72 CALM      30.05                   
OSKALOOSA *    FAIR      66  56  70 SE7       30.03F                  
CENTERVILLE *    N/A     63  63 100 CALM      30.06                   
OTTUMWA        CLEAR     63  54  72 E6        30.04S                  
WASHINGTON *   CLOUDY    63  61  94 CALM      30.06                   
$$

ABBREVIATIONS USED IN REMARKS
   TC - TEMPERATURES IN CELSIUS
  WCI - WIND CHILL INDEX
   HX - HEAT INDEX
  VSB - VISIBILITY  
$$

  

513 
ASUS43 KDMX 140401
RWRIA 

WEATHER ROUNDUP FOR IOWA
NATIONAL WEATHER SERVICE DES MOINES IA
1100 PM CDT WED JUN 13 2018

NOTE: "FAIR" INDICATES FEW OR NO CLOUDS BELOW 12,000 FEET WITH NO
SIGNIFICANT WEATHER AND/OR OBSTRUCTIONS TO VISIBILITY.

* - THESE STATIONS ARE NOT NWS STATIONS...THUS NOT UNDER NWS
QUALITY CONTROL.  THEY ALSO DO NOT REPORT WEATHER SUCH 
AS PRECIPITATION OR FOG.  

IAZ001>003-012>014-020>022-031>034-043>046-140500-
   NORTHWEST IOWA
  
CITY           SKY/WX    TMP DP  RH WIND       PRES   REMARKS
CARROLL *      CLOUDY    66  57  72 S7        29.98                   
CHEROKEE *     PTCLDY    64  57  80 S3        29.99R                  
DENISON *      CLOUDY    70  54  56 S12       29.99                   
LE MARS *      CLEAR    N/A N/A N/A E6        29.96                   
ORANGE CITY *  CLEAR     64  55  72 SE5       29.98                   
SHELDON *      CLOUDY    63  59  88 E6        29.98                   
SIOUX CITY     PTCLDY    67  55  65 S12       29.95R                  
SPENCER        CLOUDY    65  56  72 CALM      30.01R                  
STORM LAKE *   MOCLDY    64  54  68 S9        30.00                   
$$
 
IAZ055>058-069>071-079>083-090>094-140500-
   SOUTHWEST IOWA
  
CITY           SKY/WX    TMP DP  RH WIND       PRES   REMARKS
ATLANTIC *     MOCLDY    66  59  77 S6        29.99                   
AUDUBON *      CLEAR     66  57  72 S6        30.01                   
CLARINDA *     CLOUDY    70  59  68 VRB5      30.03                   
COUNCIL BLFS * CLOUDY    72  59  64 SE15G22   29.99                   
CRESTON *      CLOUDY    64  59  82 SE6       30.04                   
HARLAN  *      CLOUDY    68  57  68 S12       30.01                   
LAMONI         PTCLDY    68  58  70 E3        30.03S                  
RED OAK *      MOCLDY    70  57  64 MISG      30.01                   
SHENANDOAH *   CLOUDY    72  59  64 SE8       30.01                   
$$
 
IAZ047>049-059>061-072>074-084-140500-
   CENTRAL IOWA
  
CITY           SKY/WX    TMP DP  RH WIND       PRES   REMARKS
AMES           CLOUDY    71  53  52 S9        29.98R                  
ANKENY *       MOCLDY    68  55  64 S5        30.00                   
BOONE *        CLOUDY    70  55  60 S8G14     29.98                   
CHARITON *     CLOUDY    66  57  72 SE7       30.03                   
DES MOINES     CLOUDY    72  54  53 SE5       29.99F                  
GRINNELL*      CLOUDY    68  54  59 S8        30.01                   
KNOXVILLE *    CLOUDY    66  57  72 SE9       29.99                   
MARSHALLTOWN   MOCLDY    70  55  59 S3        29.99F                  
NEWTON *       MOCLDY    66  57  72 S9        29.99                   
PELLA *        PTCLDY    66  53  62 SE7       30.01                   
PERRY *        FAIR      65  61  86 SE6       29.99F                  
$$
 
IAZ004>006-015-016-023>025-035-036-140500-
   NORTH CENTRAL IOWA
  
CITY           SKY/WX    TMP DP  RH WIND       PRES   REMARKS
ALGONA *       CLOUDY    66  54  63 SW10      30.02                   
CLARION *      MOCLDY    66  59  77 CALM      30.01                   
ESTHERVILLE    CLOUDY    65  52  62 SW7       30.01R                  
FORT DODGE *   MOCLDY    65  57  75 CALM      30.02R                  
MASON CITY     CLOUDY    67  55  65 E6        30.00S                  
FOREST CITY *  MOCLDY    66  54  63 SE3       29.99                   
WEBSTER CITY * PTCLDY    68  55  64 CALM      29.98R                  
IOWA FALLS *   FAIR      68  54  60 S9        29.99                   
$$

IAZ007>011-017>019-026>030-037>042-050>054-066-140500-
   NORTHEAST IOWA
  
CITY           SKY/WX    TMP DP  RH WIND       PRES   REMARKS
CEDAR RAPIDS   FAIR      62  58  86 S3        30.03F                  
CHARLES CITY * FAIR      66  57  72 E9        29.98                   
CLINTON *      FAIR      67  55  65 N3        30.06R                  
DECORAH *      FAIR      66  54  63 SE3       30.01                   
DUBUQUE        FAIR      61  55  81 CALM      30.05S                  
MONTICELLO *   FAIR      61  61 100 E3        30.03                   
OELWEIN *      CLOUDY    66  59  77 SE5       30.00                   
WATERLOO       FAIR      68  53  58 E8        29.96F                  
$$
 
IAZ064-065-067-068-078-140500-
   EAST CENTRAL IOWA
  
CITY           SKY/WX    TMP DP  RH WIND       PRES   REMARKS
DAVENPORT      FAIR      60  56  86 CALM      30.07R                  
IOWA CITY      FAIR      68  57  68 CALM      30.04F                  
MUSCATINE *      N/A    N/A N/A N/A MISG        N/A                   
QUAD CITIES      N/A     62  58  86 CALM      30.04R                  
$$
 
IAZ062-063-075>077-085>089-095>099-140500-
   SOUTHEAST IOWA
  
CITY           SKY/WX    TMP DP  RH WIND       PRES   REMARKS
BURLINGTON     CLEAR     68  50  52 N3        30.06R                  
FAIRFIELD *    PTCLDY    63  55  77 NE5       30.04                   
FORT MADISON * CLEAR     63  54  72 CALM      30.06                   
KEOKUK *       CLEAR     64  55  72 CALM      30.05                   
OSKALOOSA *    FAIR      66  56  70 SE7       30.03F                  
CENTERVILLE *    N/A     63  63 100 CALM      30.06                   
OTTUMWA        CLEAR     63  54  72 E6        30.04S                  
WASHINGTON *   CLOUDY    63  61  94 CALM      30.06                   
$$

ABBREVIATIONS USED IN REMARKS
   TC - TEMPERATURES IN CELSIUS
  WCI - WIND CHILL INDEX
   HX - HEAT INDEX
  VSB - VISIBILITY  
$$